Location: Burleson Fire Department Station 2
(32.5391°N, 97.3075°W)
Time: 00:04:53
(UTC+00:00)

NOAA 15 - Pass Details

Date: 23 December 2025
Orbit: 793 x 810 km, 98.5° (Epoch: 20 January)

Event Time Altitude Azimuth Distance (km) Brightness Sun altitude
Rises 23:57:34 0° 130° (SE) 3,310 7.5 -6.4°
Reaches altitude 10° 00:00:27 10° 114° (ESE) 2,381 6.7 -6.9°
Maximum altitude 00:04:13 20° 68° (ENE) 1,764 5.8 -7.7°
Drops below altitude 10° 00:08:00 10° 21° (NNE) 2,383 6.7 -8.4°
Sets 00:10:53 0° 6° (N) 3,314 7.5 -8.9°
